Home   Weather   Waren (Müritz)   Past weeks

Flag for Germany Past Weather in Waren (Müritz), Mecklenburg-Western Pomerania, Germany — Yesterday and Last 2 Weeks

46 °F

Broken clouds.

Feels Like: 45 °F
Forecast: 42 / 53 °F
Wind: 3 mph from North

Location: Laage

Current Time: Oct 26, 2016 at 1:22:05 PM

Latest Report: Oct 26, 2016 at 12:47 PM

Visibility: 5 mi

Pressure: 30.39 "Hg

Humidity: 87%

Dew Point: 43 °F

Location of Waren (Müritz)Location

Past Weather in Waren (Müritz) — Graph


Waren (Müritz) Temperature Yesterday

Maximum temperature yesterday: 52 °F (at 2:20 PM)
Minimum temperature yesterday: 39 °F (at 5:20 AM)
Average temperature yesterday: 45 °F

High & Low Weather Summary for the Past Weeks

High52 °F (Oct 18, 2:20 PM)100% (Oct 16, 12:20 PM)30.39 "Hg (Oct 16, 12:20 PM)
Low34 °F (Oct 26, 5:20 AM)67% (Oct 14, 4:20 PM)29.89 "Hg (Oct 15, 7:20 AM)
Average45 °F91%30.09 "Hg
* Reported Oct 11 12:20 PM — Oct 26 11:55 AM, Waren (Müritz), Weather by CustomWeather, © 2016

Note: Actual official high and low records may vary slightly from our data, if they occured in-between our weather recording intervals... More about our weather records


Waren (Müritz) Weather History for the Previous 24 Hours

Scroll right to see more
Time TempWeatherWind HumidityBarometerVisibility
11:55 AM
Wed, Oct 26
45 °FFog.3 mph93%30.39 "Hg3 mi
11:20 AM43 °FPartly sunny.5 mph100%30.39 "Hg1 mi
11:04 AM41 °FFog.2 mph100%30.39 "Hg1 mi
10:20 AM39 °FFog.2 mph93%30.39 "Hg1 mi
9:20 AM36 °FFog.2 mph100%30.39 "Hg0 mi
9:00 AM36 °FFog.3 mph100%30.36 "Hg0 mi
8:20 AM36 °FFog.1 mph93%30.36 "Hg0 mi
8:01 AM36 °FFog.6 mph93%30.36 "Hg1 mi
7:20 AM34 °FFog.No wind100%30.36 "Hg2 mi
6:20 AM34 °FFog.No wind100%30.36 "Hg1 mi
5:20 AM34 °FFog.No wind100%30.36 "Hg1 mi
4:20 AM36 °FFog.1 mph100%30.36 "Hg1 mi
3:20 AM37 °FFog.No wind100%30.33 "Hg0 mi
2:20 AM39 °FFog.1 mph93%30.33 "Hg1 mi
1:20 AM37 °FFog.2 mph100%30.33 "Hg0 mi
12:20 AM39 °FFog.2 mph100%30.33 "Hg0 mi
11:48 PM
Tue, Oct 25
39 °FFog.2 mph100%30.30 "Hg0 mi
11:20 PM39 °FFog.2 mph100%30.30 "Hg0 mi
10:20 PM43 °FPassing clouds.1 mph100%30.30 "HgN/A
9:20 PM43 °FFog.2 mph93%30.30 "HgN/A
8:20 PM45 °FPassing clouds.3 mph93%30.30 "HgN/A
7:20 PM46 °FPartly cloudy.3 mph93%30.27 "HgN/A
6:20 PM48 °FPartly cloudy.7 mph87%30.24 "HgN/A
5:20 PM48 °FScattered clouds.7 mph87%30.21 "HgN/A
4:20 PM50 °FScattered clouds.8 mph82%30.21 "HgN/A
3:58 PM50 °FScattered clouds.9 mph82%30.21 "HgN/A
3:20 PM50 °FBroken clouds.12 mph82%30.18 "HgN/A
2:20 PM52 °FPartly sunny.9 mph77%30.18 "HgN/A
1:47 PM50 °FBroken clouds.9 mph88%30.15 "HgN/A
1:20 PM50 °FPartly sunny.10 mph88%30.15 "Hg5 mi
Weather by CustomWeather, © 2016

See weather overviewHow to use our weather pages